GW0539 Weather Reports


time (UTC)temp
C
wind
direction
speed
KPH
gust
KPH
rain 1hr
cm
rain 24hr
cm
rain mn
cm
humidity
%
barometer
mb
20260906223532 26 189 12.9 16.1 0.00 0.00 0.00 27 1024.2
20260906223031 26 227 12.9 22.5 0.00 0.00 0.00 28 1024.4
20260906222525 26 205 8.0 14.5 0.00 0.00 0.00 27 1024.5
20260906222023 27 300 6.4 17.7 0.00 0.00 0.00 27 1024.4
20260906221522 27 322 6.4 14.5 0.00 0.00 0.00 26 1024.5
20260906221018 28 209 8.0 14.5 0.00 0.00 0.00 26 1024.4
20260906220517 27 246 11.3 12.9 0.00 0.00 0.00 28 1024.6
20260906220013 26 102 4.8 12.9 0.00 0.00 0.00 27 1024.6
20260906215512 26 232 6.4 11.3 0.00 0.00 0.00 27 1024.7
20260906215010 26 233 14.5 16.1 0.00 0.00 0.00 26 1024.7
20260906214508 27 11 4.8 12.9 0.00 0.00 0.00 26 1025.0
20260906214004 27 214 8.0 11.3 0.00 0.00 0.00 25 1024.9
20260906213458 27 182 11.3 16.1 0.00 0.00 0.00 26 1024.9
20260906212956 28 316 6.4 12.9 0.00 0.00 0.00 28 1025.0
20260906212450 28 293 4.8 16.1 0.00 0.00 0.00 24 1025.0
20260906211945 26 356 1.6 11.3 0.00 0.00 0.00 26 1025.3
20260906211440 27 254 9.7 17.7 0.00 0.00 0.00 25 1025.3
20260906210935 28 214 9.7 17.7 0.00 0.00 0.00 24 1025.3
20260906210431 28 236 6.4 11.3 0.00 0.00 0.00 24 1025.1
20260906205924 28 180 12.9 16.1 0.00 0.00 0.00 24 1025.5
20260906205421 28 301 4.8 12.9 0.00 0.00 0.00 23 1025.3
20260906204917 27 291 11.3 16.1 0.00 0.00 0.00 24 1025.6
20260906204416 27 203 19.3 22.5 0.00 0.00 0.00 25 1025.5
20260906203915 27 175 12.9 25.7 0.00 0.00 0.00 24 1025.6
20260906203410 27 181 9.7 14.5 0.00 0.00 0.00 24 1025.5
20260906202908 27 188 12.9 16.1 0.00 0.00 0.00 25 1025.9
20260906202402 28 222 17.7 22.5 0.00 0.00 0.00 25 1025.6
20260906201901 27 46 6.4 11.3 0.00 0.00 0.00 25 1025.5
20260906201356 27 174 14.5 16.1 0.00 0.00 0.00 25 1025.8
20260906200851 27 177 11.3 14.5 0.00 0.00 0.00 26 1025.8
20260906200348 27 181 9.7 12.9 0.00 0.00 0.00 27 1026.0
20260906195842 27 216 14.5 20.9 0.00 0.00 0.00 27 1025.9
20260906195339 27 205 16.1 25.7 0.00 0.00 0.00 27 1025.9
20260906194834 27 259 8.0 14.5 0.00 0.00 0.00 28 1026.0
20260906194329 27 192 9.7 17.7 0.00 0.00 0.00 30 1025.9
20260906193819 27 173 9.7 24.1 0.00 0.00 0.00 28 1025.9
20260906193314 27 334 4.8 12.9 0.00 0.00 0.00 31 1026.0
20260906192809 27 168 12.9 22.5 0.00 0.00 0.00 29 1026.1
20260906192306 27 241 8.0 17.7 0.00 0.00 0.00 28 1026.1
20260906191803 27 224 14.5 16.1 0.00 0.00 0.00 30 1026.0
20260906191257 26 14 4.8 4.8 0.00 0.00 0.00 33 1026.1
20260906190752 25 354 1.6 3.2 0.00 0.00 0.00 32 1026.7
20260906190246 25 318 3.2 11.3 0.00 0.00 0.00 32 1026.7
20260906185745 26 310 4.8 11.3 0.00 0.00 0.00 33 1026.7
20260906185245 26 326 4.8 4.8 0.00 0.00 0.00 32 1026.7
20260906184739 26 21 8.0 12.9 0.00 0.00 0.00 32 1026.7
20260906184235 25 229 11.3 12.9 0.00 0.00 0.00 34 1026.8
20260906183730 25 309 6.4 9.7 0.00 0.00 0.00 34 1026.8
20260906183227 25 347 1.6 3.2 0.00 0.00 0.00 34 1026.9
20260906182726 26 199 8.0 11.3 0.00 0.00 0.00 33 1027.3
20260906182222 25 2 4.8 9.7 0.00 0.00 0.00 32 1027.3
20260906181717 25 304 6.4 17.7 0.00 0.00 0.00 32 1027.2
20260906181214 25 349 4.8 8.0 0.00 0.00 0.00 33 1027.2
20260906180713 25 13 3.2 8.0 0.00 0.00 0.00 34 1027.5
20260906180208 24 22 4.8 8.0 0.00 0.00 0.00 34 1027.5
20260906175706 25 72 9.7 11.3 0.00 0.00 0.00 35 1027.5
20260906175202 24 344 1.6 8.0 0.00 0.00 0.00 37 1027.9
20260906174700 24 357 1.6 9.7 0.00 0.00 0.00 36 1027.8
20260906174154 23 350 4.8 11.3 0.00 0.00 0.00 37 1028.2
20260906173650 23 339 1.6 12.9 0.00 0.00 0.00 35 1028.3
20260906173146 23 15 3.2 8.0 0.00 0.00 0.00 35 1028.3
20260906172645 23 317 4.8 9.7 0.00 0.00 0.00 34 1028.4
20260906172141 23 50 4.8 11.3 0.00 0.00 0.00 35 1028.6
20260906171640 23 309 6.4 9.7 0.00 0.00 0.00 36 1028.4
20260906171136 23 343 3.2 14.5 0.00 0.00 0.00 35 1028.7
20260906170632 23 220 12.9 14.5 0.00 0.00 0.00 37 1028.9
20260906170131 23 301 6.4 12.9 0.00 0.00 0.00 38 1028.9
20260906165628 22 352 1.6 4.8 0.00 0.00 0.00 40 1028.8
20260906165123 22 224 6.4 9.7 0.00 0.00 0.00 40 1029.1
20260906164621 22 348 1.6 3.2 0.00 0.00 0.00 43 1028.9
20260906164117 22 353 1.6 8.0 0.00 0.00 0.00 45 1028.9
20260906163613 21 337 3.2 8.0 0.00 0.00 0.00 46 1028.9
20260906163109 21 6 1.6 9.7 0.00 0.00 0.00 46 1029.2
20260906162606 21 43 3.2 4.8 0.00 0.00 0.00 48 1029.1
20260906162101 21 323 3.2 4.8 0.00 0.00 0.00 48 1029.2
20260906161555 21 225 8.0 9.7 0.00 0.00 0.00 47 1029.1
20260906161054 20 4 1.6 4.8 0.00 0.00 0.00 49 1028.9
20260906160553 20 12 3.2 4.8 0.00 0.00 0.00 50 1029.1
20260906160052 20 6 1.6 4.8 0.00 0.00 0.00 53 1028.9
20260906155550 19 16 3.2 4.8 0.00 0.00 0.00 53 1029.1
20260906155046 18 355 1.6 4.8 0.00 0.00 0.00 58 1029.1
20260906154541 18 358 1.6 4.8 0.00 0.00 0.00 58 1029.1
20260906154040 17 355 0.0 3.2 0.00 0.00 0.00 59 1029.2
20260906153538 17 357 1.6 3.2 0.00 0.00 0.00 62 1029.2
20260906153034 16 330 3.2 8.0 0.00 0.00 0.00 67 1029.1
20260906152533 16 350 0.0 3.2 0.00 0.00 0.00 68 1029.2
20260906152033 15 349 0.0 3.2 0.00 0.00 0.00 70 1029.2
20260906151528 15 352 1.6 1.6 0.00 0.00 0.00 74 1029.3
20260906151024 14 356 0.0 0.0 0.00 0.00 0.00 76 1029.2
20260906150519 13 355 0.0 1.6 0.00 0.00 0.00 80 1029.3
20260906150014 13 357 0.0 1.6 0.00 0.00 0.00 82 1029.3
20260906145513 12 351 1.6 3.2 0.00 0.00 0.00 82 1029.5
20260906145009 12 348 0.0 1.6 0.00 0.00 0.00 84 1029.1
20260906144503 11 353 0.0 0.0 0.00 0.00 0.00 85 1029.3
20260906143958 11 359 0.0 1.6 0.00 0.00 0.00 86 1029.3
20260906143453 11 356 0.0 1.6 0.00 0.00 0.00 86 1029.6
20260906142949 10 351 0.0 1.6 0.00 0.00 0.00 87 1029.5
20260906142449 10 353 1.6 3.2 0.00 0.00 0.00 88 1029.5
20260906141943 10 351 1.6 3.2 0.00 0.00 0.00 90 1029.6
20260906141437 9 345 1.6 3.2 0.00 0.00 0.00 90 1029.7
20260906140932 9 353 0.0 0.0 0.00 0.00 0.00 91 1029.7
20260906140427 8 354 0.0 0.0 0.00 0.00 0.00 92 1029.7
20260906135925 8 353 0.0 0.0 0.00 0.00 0.00 95 1029.7
20260906135424 7 353 0.0 1.6 0.00 0.00 0.00 96 1029.6
20260906134920 7 353 1.6 3.2 0.00 0.00 0.00 97 1029.7
20260906134415 6 356 1.6 3.2 0.00 0.00 0.00 97 1029.6
20260906133910 6 358 1.6 3.2 0.00 0.00 0.00 99 1029.7
20260906133406 6 354 0.0 0.0 0.00 0.00 0.00 99 1029.6
20260906132901 6 350 0.0 0.0 0.00 0.00 0.00 99 1029.3
20260906132356 5 348 0.0 1.6 0.00 0.00 0.00 99 1029.3
20260906131852 5 347 0.0 1.6 0.00 0.00 0.00 99 1029.5
20260906131347 5 350 0.0 1.6 0.00 0.00 0.00 99 1029.5
20260906130843 5 351 0.0 0.0 0.00 0.00 0.00 99 1029.3
20260906130342 5 351 0.0 1.6 0.00 0.00 0.00 99 1029.3
20260906125841 5 348 1.6 1.6 0.00 0.00 0.00 99 1029.2
20260906125338 5 344 1.6 1.6 0.00 0.00 0.00 99 1029.3
20260906124833 5 318 4.8 4.8 0.00 0.00 0.00 99 1029.5
20260906124330 5 338 3.2 3.2 0.00 0.00 0.00 99 1029.3
20260906123829 5 355 1.6 1.6 0.00 0.00 0.00 99 1029.2
20260906123324 5 351 0.0 1.6 0.00 0.00 0.00 99 1029.3
20260906122823 5 347 1.6 1.6 0.00 0.00 0.00 99 1029.5
20260906122318 5 351 0.0 1.6 0.00 0.00 0.00 99 1029.2
20260906121815 5 337 3.2 3.2 0.00 0.00 0.00 99 1029.2
20260906121311 5 326 3.2 3.2 0.00 0.00 0.00 99 1029.1
20260906120806 5 344 1.6 1.6 0.00 0.00 0.00 99 1029.1
20260906120257 5 353 0.0 0.0 0.00 0.00 0.00 99 1029.5
20260906115752 5 350 0.0 0.0 0.00 0.00 0.00 99 1029.2
20260906115242 5 350 0.0 1.6 0.00 0.00 0.00 99 1029.3
20260906114741 5 329 3.2 3.2 0.00 0.00 0.00 99 1029.3
20260906114237 5 346 1.6 1.6 0.00 0.00 0.00 99 1029.1
20260906113732 5 339 1.6 1.6 0.00 0.00 0.00 99 1029.3
20260906113231 5 350 0.0 0.0 0.00 0.00 0.00 99 1029.3
20260906112731 5 350 1.6 1.6 0.00 0.00 0.00 99 1029.3
20260906112228 6 344 1.6 1.6 0.00 0.00 0.00 99 1029.3
20260906111727 6 353 0.0 0.0 0.00 0.00 0.00 99 1029.1
20260906111221 5 350 0.0 1.6 0.00 0.00 0.00 99 1029.2
20260906110717 6 337 3.2 3.2 0.00 0.00 0.00 98 1029.1
20260906110212 6 348 1.6 1.6 0.00 0.00 0.00 98 1029.2
20260906105711 6 348 0.0 0.0 0.00 0.00 0.00 98 1029.2
20260906105207 6 353 0.0 0.0 0.00 0.00 0.00 98 1029.1
20260906104707 6 353 0.0 0.0 0.00 0.00 0.00 98 1028.9
20260906104201 6 353 0.0 0.0 0.00 0.00 0.00 98 1028.9
20260906103658 6 350 0.0 0.0 0.00 0.00 0.00 97 1028.8
20260906103154 6 350 0.0 0.0 0.00 0.00 0.00 97 1028.8
20260906102648 6 351 0.0 0.0 0.00 0.00 0.00 97 1028.7
20260906102143 6 348 0.0 0.0 0.00 0.00 0.00 97 1028.9
20260906101642 6 348 1.6 1.6 0.00 0.00 0.00 97 1028.9
20260906101137 6 356 1.6 1.6 0.00 0.00 0.00 97 1028.9
20260906100633 6 350 0.0 0.0 0.00 0.00 0.00 97 1028.8
20260906100127 6 348 0.0 1.6 0.00 0.00 0.00 97 1028.8
20260906095622 6 346 0.0 1.6 0.00 0.00 0.00 97 1029.1
20260906095118 6 329 3.2 3.2 0.00 0.00 0.00 97 1028.9
20260906094616 6 351 1.6 3.2 0.00 0.00 0.00 97 1028.9
20260906094112 6 351 0.0 0.0 0.00 0.00 0.00 97 1028.9
20260906093608 6 351 0.0 0.0 0.00 0.00 0.00 97 1028.9
20260906093102 6 349 0.0 0.0 0.00 0.00 0.00 97 1028.9
20260906092552 6 344 1.6 1.6 0.00 0.00 0.00 98 1029.1
20260906092047 6 340 1.6 1.6 0.00 0.00 0.00 97 1028.8
20260906091543 6 346 1.6 1.6 0.00 0.00 0.00 97 1028.7
20260906091039 6 347 1.6 1.6 0.00 0.00 0.00 97 1028.9
20260906090539 7 347 0.0 0.0 0.00 0.00 0.00 97 1029.1
20260906090034 7 349 0.0 0.0 0.00 0.00 0.00 97 1029.1
20260906085533 7 349 0.0 0.0 0.00 0.00 0.00 97 1028.8
20260906085032 7 347 0.0 0.0 0.00 0.00 0.00 96 1028.9
20260906084528 7 354 0.0 1.6 0.00 0.00 0.00 97 1028.7
20260906084026 7 347 0.0 3.2 0.00 0.00 0.00 96 1029.1
20260906083522 7 351 0.0 0.0 0.00 0.00 0.00 96 1028.9
20260906083022 7 350 0.0 0.0 0.00 0.00 0.00 96 1028.8
20260906082517 7 349 0.0 0.0 0.00 0.00 0.00 96 1028.9
20260906082013 7 349 0.0 0.0 0.00 0.00 0.00 96 1028.9
20260906081508 7 349 0.0 0.0 0.00 0.00 0.00 96 1028.7
20260906081004 7 348 0.0 1.6 0.00 0.00 0.00 95 1029.1
20260906080500 7 351 0.0 1.6 0.00 0.00 0.00 95 1028.9
20260906075955 7 343 1.6 3.2 0.00 0.00 0.00 95 1028.9
20260906075450 7 348 0.0 1.6 0.00 0.00 0.00 95 1029.1
20260906074944 7 351 1.6 1.6 0.00 0.00 0.00 94 1029.2
20260906074439 8 352 0.0 0.0 0.00 0.00 0.00 94 1029.1
20260906073937 8 349 0.0 0.0 0.00 0.00 0.00 94 1029.1
20260906073432 8 349 0.0 0.0 0.00 0.00 0.00 94 1028.9
20260906072929 8 349 0.0 0.0 0.00 0.00 0.00 94 1029.1
20260906072424 8 351 0.0 0.0 0.00 0.00 0.00 94 1029.1
20260906071920 8 354 1.6 1.6 0.00 0.00 0.00 94 1029.2
20260906071415 8 352 0.0 0.0 0.00 0.00 0.00 93 1028.9
20260906070912 8 351 0.0 1.6 0.00 0.00 0.00 93 1029.2
20260906070407 8 348 0.0 1.6 0.00 0.00 0.00 93 1029.1
20260906065902 8 349 0.0 1.6 0.00 0.00 0.00 92 1029.2
20260906065355 9 354 0.0 0.0 0.00 0.00 0.00 91 1028.9
20260906064852 9 351 0.0 0.0 0.00 0.00 0.00 90 1028.9
20260906064343 9 351 0.0 0.0 0.00 0.00 0.00 90 1028.9
20260906063842 9 351 0.0 1.6 0.00 0.00 0.00 89 1029.1
20260906063338 9 354 1.6 3.2 0.00 0.00 0.00 90 1028.7
20260906062833 9 347 3.2 3.2 0.00 0.00 0.00 90 1028.8
20260906062332 9 349 0.0 3.2 0.00 0.00 0.00 90 1028.7
20260906061827 10 345 0.0 0.0 0.00 0.00 0.00 89 1028.9
20260906061324 10 333 3.2 3.2 0.00 0.00 0.00 88 1029.1
20260906060818 10 337 3.2 3.2 0.00 0.00 0.00 89 1029.1
20260906060317 10 337 3.2 3.2 0.00 0.00 0.00 90 1029.1
20260906055812 10 344 1.6 3.2 0.00 0.46 0.46 91 1028.9
20260906055307 10 351 1.6 3.2 0.00 0.46 0.46 91 1028.9
20260906054802 10 344 1.6 3.2 0.00 0.46 0.46 91 1029.1
20260906054257 10 352 1.6 3.2 0.00 0.46 0.46 91 1028.9
20260906053748 10 351 1.6 1.6 0.00 0.46 0.46 91 1028.9
20260906053244 10 349 0.0 1.6 0.00 0.46 0.46 92 1029.1
20260906052739 10 343 1.6 3.2 0.00 0.46 0.46 92 1029.1
20260906052235 10 335 3.2 3.2 0.00 0.46 0.46 92 1029.2
20260906051732 10 348 1.6 3.2 0.00 0.46 0.46 90 1029.1
20260906051231 10 354 0.0 1.6 0.00 0.46 0.46 89 1029.1
20260906050727 10 359 1.6 3.2 0.00 0.46 0.46 89 1029.1
20260906050222 11 348 0.0 1.6 0.00 0.46 0.46 88 1029.1
20260906045720 10 354 0.0 0.0 0.00 0.46 0.46 87 1028.9
20260906045216 10 350 1.6 1.6 0.00 0.46 0.46 88 1028.8
20260906044711 11 350 0.0 1.6 0.00 0.46 0.46 88 1028.8
20260906044206 11 350 1.6 1.6 0.00 0.46 0.46 88 1028.9
20260906043703 11 356 1.6 1.6 0.00 0.46 0.46 88 1028.9
20260906043158 11 348 1.6 1.6 0.00 0.46 0.46 88 1029.1
20260906042657 11 352 0.0 1.6 0.00 0.46 0.46 87 1028.9
20260906042157 11 351 0.0 1.6 0.00 0.46 0.46 86 1028.9
20260906041653 12 354 0.0 1.6 0.00 0.46 0.46 86 1028.8
20260906041148 12 354 0.0 1.6 0.00 0.46 0.46 86 1028.8
20260906040643 11 357 1.6 1.6 0.00 0.46 0.46 87 1028.7
20260906040139 11 354 0.0 1.6 0.00 0.46 0.46 86 1028.7
20260906035633 11 354 0.0 0.0 0.00 0.46 0.46 85 1028.7
20260906035129 12 354 0.0 1.6 0.00 0.46 0.46 86 1028.9
20260906034624 12 340 1.6 3.2 0.00 0.46 0.46 86 1028.8
20260906034118 12 354 0.0 0.0 0.00 0.46 0.46 85 1028.7
20260906033614 12 350 0.0 1.6 0.00 0.46 0.46 84 1028.6
20260906033109 12 329 3.2 3.2 0.00 0.46 0.46 82 1028.7
20260906032606 13 355 0.0 1.6 0.00 0.46 0.46 79 1028.7
20260906032105 13 359 1.6 3.2 0.00 0.46 0.46 79 1028.6
20260906031601 13 355 1.6 1.6 0.00 0.46 0.46 80 1028.6
20260906031056 13 351 1.6 1.6 0.00 0.46 0.46 82 1028.6
20260906030555 13 355 1.6 1.6 0.00 0.46 0.46 82 1028.2
20260906030050 13 346 0.0 3.2 0.00 0.46 0.46 84 1028.2
20260906025550 14 355 1.6 1.6 0.00 0.46 0.46 83 1028.3
20260906025048 13 358 1.6 1.6 0.00 0.46 0.46 83 1028.1
20260906024544 13 345 0.0 1.6 0.00 0.46 0.46 83 1028.2
20260906024043 14 342 1.6 3.2 0.00 0.46 0.46 83 1027.9
20260906023540 15 356 1.6 1.6 0.00 0.46 0.46 80 1027.8
20260906023034 15 354 0.0 1.6 0.00 0.46 0.46 81 1027.9
20260906022530 15 348 1.6 1.6 0.00 0.46 0.46 79 1027.8
20260906022025 15 355 0.0 1.6 0.00 0.46 0.46 78 1027.8
20260906021520 15 349 0.0 1.6 0.00 0.46 0.46 79 1027.7
20260906021014 16 355 1.6 3.2 0.00 0.46 0.46 72 1027.4
20260906020514 16 355 0.0 1.6 0.00 0.46 0.46 74 1027.7
20260906020013 15 359 1.6 1.6 0.00 0.46 0.46 79 1027.3
20260906015512 15 354 0.0 1.6 0.00 0.46 0.46 79 1027.5
20260906015007 15 349 0.0 1.6 0.00 0.46 0.46 78 1027.3
20260906014501 16 353 0.0 0.0 0.00 0.46 0.46 81 1027.3
20260906013957 16 358 1.6 1.6 0.00 0.46 0.46 77 1027.3
20260906013453 16 345 1.6 1.6 0.00 0.46 0.46 78 1027.3
20260906012949 16 354 0.0 0.0 0.00 0.46 0.46 80 1027.3
20260906012448 16 348 1.6 3.2 0.00 0.46 0.46 78 1027.2
20260906011948 16 356 1.6 3.2 0.00 0.46 0.46 80 1027.0
20260906011444 16 354 0.0 1.6 0.00 0.46 0.46 81 1027.2
20260906010939 16 351 0.0 1.6 0.00 0.46 0.46 82 1027.2
20260906010434 18 349 0.0 1.6 0.00 0.46 0.46 79 1027.0
20260906005930 19 345 1.6 1.6 0.00 0.46 0.46 73 1027.0
20260906005430 20 349 0.0 0.0 0.00 0.46 0.46 67 1027.0
20260906004928 21 345 1.6 1.6 0.00 0.46 0.46 66 1027.2
20260906004422 21 347 1.6 1.6 0.00 0.46 0.46 60 1027.2
20260906003918 21 344 1.6 1.6 0.00 0.46 0.46 64 1027.3
20260906003413 22 347 1.6 3.2 0.00 0.46 0.46 64 1027.3
20260906002909 22 349 1.6 3.2 0.00 0.46 0.46 60 1027.2
20260906002409 21 350 1.6 3.2 0.00 0.46 0.46 60 1027.2
20260906001904 20 347 0.0 1.6 0.00 0.46 0.46 66 1027.0
20260906001400 20 342 3.2 4.8 0.00 0.46 0.46 68 1026.9
20260906000900 21 348 1.6 1.6 0.00 0.46 0.46 61 1026.9
20260906000400 21 348 1.6 1.6 0.00 0.46 0.46 57 1027.2
20260905235855 21 7 3.2 8.0 0.00 0.46 0.46 47 1027.0
20260905235349 21 11 1.6 11.3 0.00 0.46 0.46 58 1026.9
20260905234844 20 17 6.4 8.0 0.00 0.46 0.46 62 1027.2
20260905234340 20 8 3.2 4.8 0.00 0.46 0.46 66 1027.2
20260905233835 20 14 3.2 4.8 0.00 0.46 0.46 67 1027.2
20260905233330 20 2 6.4 11.3 0.00 0.46 0.46 69 1027.0
20260905232829 20 19 6.4 8.0 0.00 0.46 0.46 67 1027.3
20260905232325 20 346 3.2 4.8 0.00 0.46 0.46 72 1027.2
20260905231821 19 341 4.8 4.8 0.00 0.46 0.46 73 1027.2
20260905231316 19 346 3.2 3.2 0.00 0.46 0.46 80 1027.2
20260905230812 18 342 1.6 3.2 0.00 0.46 0.46 84 1026.9
20260905230310 17 344 1.6 3.2 0.00 0.46 0.46 79 1026.9
20260905225809 17 347 0.0 3.2 0.00 0.46 0.46 76 1027.0
20260905225306 17 349 1.6 4.8 0.00 0.46 0.46 80 1027.0
20260905224804 17 327 4.8 4.8 0.00 0.46 0.46 77 1026.9
20260905224300 17 346 0.0 4.8 0.00 0.46 0.46 71 1027.0
20260905223755 17 52 6.4 11.3 0.00 0.46 0.46 71 1026.7